Spokane Fairchild, WA

8:36 PM PDT on May 21, 2018 (GMT -0700)
Fairchild Air Force Base

Weather History for KSKA - August, 2014

Change the Weather History Date:

Tuesday, August 5, 2014

  Actual Average Record
Temperature  
Mean Temperature 79 °F -  
Max Temperature 94 °F 83 °F 100 °F (1998)
Min Temperature 64 °F 56 °F 44 °F (2002)
Cooling Degree Days 14    
Growing Degree Days 29 (Base 50)    
Moisture  
Dew Point 42 °F    
Average Humidity 30    
Maximum Humidity 56    
Minimum Humidity 13    
Precipitation  
Precipitation 0.00 in - - ()
Sea Level Pressure  
Sea Level Pressure 29.89 in    
Wind  
Wind Speed 6 mph (SW)    
Max Wind Speed 10 mph    
Max Gust Speed 23 mph    
Visibility 10 miles    
Events      
Averages and records for this station are not official NWS values.
T = Trace of Precipitation, MM = Missing Value Source: NWS Daily Summary

Daily Weather History Graph

Daily Weather History Graph

Search for Another Location

Airport or City:

Astronomy

Aug. 05, 2014 Rise Set
Actual Time 5:33 AM PDT 8:19 PM PDT
Civil Twilight 4:57 AM PDT 8:54 PM PDT
Nautical Twilight 4:12 AM PDT 9:39 PM PDT
Astronomical Twilight 3:19 AM PDT 10:32 PM PDT
Moon 3:40 PM PDT (8/5) 12:24 AM PDT (8/5)
Length of Visible Light 15h 56m
Length of Day
14h 45m
Waxing Gibbous, 69% of the Moon is Illuminated
Aug 5
Waxing Gibbous
Aug 10
Full
Aug 17
Last Quarter
Aug 25
New
Sep 2
First Quarter

Hourly Weather History & Observations

Time (PDT) Temp. Dew Point Humidity Pressure Visibility Wind Dir Wind Speed Gust Speed Precip Events Conditions
12:58 AM 69.4 °F 40.6 °F 35% 29.86 in 10.0 mi WSW 3.5 mph - N/A   Clear
1:58 AM 65.7 °F 41.7 °F 42% 29.87 in 10.0 mi NW 8.1 mph - N/A   Clear
2:58 AM 67.5 °F 42.1 °F 40% 29.86 in 10.0 mi ENE 5.8 mph - N/A   Clear
3:58 AM 64.8 °F 45.7 °F 50% 29.88 in 10.0 mi East 3.5 mph - N/A   Clear
4:58 AM 64.8 °F 47.1 °F 53% 29.88 in 10.0 mi ENE 5.8 mph - N/A   Clear
5:58 AM 64.6 °F 48.6 °F 56% 29.89 in 10.0 mi NNE 6.9 mph - N/A   Clear
6:58 AM 67.6 °F 48.4 °F 50% 29.90 in 10.0 mi NNW 4.6 mph - N/A   Clear
7:58 AM 69.8 °F 50.0 °F 49% 29.92 in 10.0 mi East 4.6 mph - N/A   Clear
8:58 AM 74.5 °F 50.5 °F 43% 29.93 in 10.0 mi ENE 6.9 mph - N/A   Clear
9:58 AM 79.3 °F 47.7 °F 33% 29.93 in 10.0 mi ESE 4.6 mph - N/A   Clear
10:58 AM 83.3 °F 46.2 °F 27% 29.93 in 10.0 mi Variable 4.6 mph - N/A   Clear
11:58 AM 87.1 °F 45.7 °F 24% 29.93 in 10.0 mi Variable 2.3 mph - 0.00 in   Clear
12:58 PM 90.9 °F 42.1 °F 18% 29.92 in 10.0 mi SSW 5.8 mph - 0.00 in   Clear
1:58 PM 92.7 °F 39.9 °F 16% 29.91 in 10.0 mi Variable 2.3 mph - 0.00 in   Clear
2:58 PM 94.6 °F 37.6 °F 14% 29.88 in 10.0 mi Variable 6.9 mph - 0.00 in   Clear
3:58 PM 94.8 °F 37.4 °F 13% 29.87 in 10.0 mi SSW 5.8 mph - 0.00 in   Clear
4:58 PM 94.1 °F 37.6 °F 14% 29.86 in 10.0 mi SW 10.4 mph 23.0 mph 0.00 in   Clear
5:58 PM 93.4 °F 38.1 °F 14% 29.85 in 10.0 mi SW 10.4 mph - N/A   Clear
6:58 PM 91.2 °F 38.1 °F 15% 29.86 in 10.0 mi SW 10.4 mph - N/A   Clear
7:58 PM 85.8 °F 39.6 °F 19% 29.86 in 10.0 mi SW 8.1 mph - N/A   Clear
8:58 PM 80.4 °F 39.7 °F 23% 29.87 in 10.0 mi SW 10.4 mph - N/A   Clear
9:58 PM 76.5 °F 37.4 °F 24% 29.88 in 10.0 mi WSW 10.4 mph - N/A   Clear
10:58 PM 75.0 °F 36.3 °F 25% 29.88 in 10.0 mi WSW 10.4 mph - N/A   Clear
11:58 PM 73.9 °F 36.0 °F 25% 29.88 in 10.0 mi SW 10.4 mph - N/A   Clear